PAA456 KJFK-TNCM

Flight info

Callsign PAA456
Flight time N/A
Altitude 37000
Route SHIPP Y492 SQUAD/M085F370 DCT DARUX L456 EMAKO/M085F390 L456 HANCY/N0489F390 L456 THANK DCT SLUGO ULUBA1
Aircraft B742/H-SDIWY/L

Departure

Time 2026-05-05 21:00
Airport John F. Kennedy International Airport (KJFK)

Arrival

Time N/A
Airport Princess Juliana International Airport (TNCM)
Time Latitude Longitude Altitude Speed Heading
2026-05-05 20:19 40.63734 -73.78180 17 ft 0 kts 82°
2026-05-05 20:25 40.63734 -73.78181 17 ft 0 kts 82°
2026-05-05 20:47 40.63733 -73.78187 17 ft 2 kts 82°
2026-05-05 20:47 40.63731 -73.78207 17 ft 2 kts 82°
2026-05-05 20:47 40.63731 -73.78227 17 ft 2 kts 99°
2026-05-05 20:47 40.63736 -73.78246 17 ft 2 kts 118°
2026-05-05 20:48 40.63745 -73.78262 17 ft 2 kts 135°
2026-05-05 20:48 40.63757 -73.78273 17 ft 2 kts 153°
2026-05-05 20:48 40.63771 -73.78280 17 ft 2 kts 171°
2026-05-05 20:48 40.63786 -73.78282 17 ft 2 kts 173°
2026-05-05 20:49 40.63790 -73.78282 17 ft 0 kts 172°
2026-05-05 20:53 40.63779 -73.78280 17 ft 7 kts 172°
2026-05-05 20:53 40.63671 -73.78262 17 ft 17 kts 173°
2026-05-05 20:54 40.63566 -73.78269 15 ft 13 kts 198°
2026-05-05 20:54 40.63479 -73.78200 14 ft 19 kts 119°
2026-05-05 20:54 40.63412 -73.78043 14 ft 18 kts 117°
2026-05-05 20:54 40.63439 -73.77880 14 ft 22 kts 39°
2026-05-05 20:55 40.63582 -73.77768 16 ft 22 kts 29°
2026-05-05 20:55 40.63716 -73.77666 17 ft 23 kts 32°
2026-05-05 20:55 40.63871 -73.77542 17 ft 26 kts 30°
2026-05-05 20:55 40.64028 -73.77422 17 ft 25 kts 30°
2026-05-05 20:56 40.64175 -73.77305 17 ft 23 kts 33°
2026-05-05 20:56 40.64307 -73.77200 17 ft 21 kts 31°
2026-05-05 20:56 40.64409 -73.77106 17 ft 14 kts 57°
2026-05-05 20:56 40.64479 -73.76990 17 ft 19 kts 19°
2026-05-05 20:57 40.64662 -73.76868 17 ft 20 kts 32°
2026-05-05 20:57 40.64737 -73.76810 17 ft 18 kts 31°
2026-05-05 20:57 40.64843 -73.76726 17 ft 17 kts 30°
2026-05-05 20:57 40.64941 -73.76650 17 ft 15 kts 30°
2026-05-05 20:58 40.65033 -73.76579 17 ft 15 kts 30°
2026-05-05 20:58 40.65100 -73.76494 17 ft 8 kts 90°
2026-05-05 20:58 40.65084 -73.76438 17 ft 7 kts 113°
2026-05-05 20:58 40.65044 -73.76370 17 ft 8 kts 151°
2026-05-05 20:59 40.65002 -73.76372 17 ft 5 kts 206°
2026-05-05 20:59 40.64982 -73.76387 17 ft 0 kts 211°
2026-05-05 20:59 40.64977 -73.76391 17 ft 5 kts 211°
2026-05-05 20:59 40.64808 -73.76522 17 ft 58 kts 210°
2026-05-05 21:00 40.64273 -73.76940 17 ft 117 kts 210°
2026-05-05 21:00 40.63420 -73.77613 59 ft 162 kts 209°
2026-05-05 21:00 40.62457 -73.78357 671 ft 160 kts 208°
2026-05-05 21:00 40.61460 -73.79039 1272 ft 164 kts 205°
2026-05-05 21:01 40.60313 -73.79062 1721 ft 192 kts 150°
2026-05-05 21:01 40.59530 -73.77452 2148 ft 230 kts 108°
2026-05-05 21:01 40.59414 -73.75259 2681 ft 249 kts 95°
2026-05-05 21:01 40.59322 -73.72912 3206 ft 263 kts 102°
2026-05-05 21:02 40.58935 -73.70519 3796 ft 273 kts 117°
2026-05-05 21:02 40.58082 -73.68270 4516 ft 279 kts 128°
2026-05-05 21:02 40.56979 -73.66143 5332 ft 286 kts 132°
2026-05-05 21:02 40.55782 -73.64039 6180 ft 290 kts 133°
2026-05-05 21:03 40.54571 -73.61946 7018 ft 290 kts 134°
2026-05-05 21:03 40.53346 -73.59837 7816 ft 294 kts 134°
2026-05-05 21:03 40.52098 -73.57687 8611 ft 299 kts 134°
2026-05-05 21:03 40.50839 -73.55517 9409 ft 302 kts 134°
2026-05-05 21:04 40.49567 -73.53322 10176 ft 304 kts 134°
2026-05-05 21:04 40.48285 -73.51114 10927 ft 306 kts 134°
2026-05-05 21:04 40.46998 -73.48899 11671 ft 307 kts 134°
2026-05-05 21:04 40.45706 -73.46676 12384 ft 308 kts 133°
2026-05-05 21:05 40.44409 -73.44444 13081 ft 308 kts 133°
2026-05-05 21:05 40.43113 -73.42215 13742 ft 308 kts 133°
2026-05-05 21:05 40.41817 -73.39988 14382 ft 308 kts 133°
2026-05-05 21:05 40.40517 -73.37756 15005 ft 308 kts 132°
2026-05-05 21:06 40.39221 -73.35534 15652 ft 308 kts 132°
2026-05-05 21:06 40.37925 -73.33313 16221 ft 307 kts 133°
2026-05-05 21:06 40.36613 -73.31070 16605 ft 313 kts 132°
2026-05-05 21:06 40.35276 -73.28783 17008 ft 321 kts 132°
2026-05-05 21:07 40.33904 -73.26444 17417 ft 329 kts 131°
2026-05-05 21:07 40.32543 -73.23995 17805 ft 338 kts 128°
2026-05-05 21:07 40.31226 -73.21398 18202 ft 347 kts 126°
2026-05-05 21:07 40.29897 -73.18719 18575 ft 356 kts 126°
2026-05-05 21:08 40.28534 -73.15980 18917 ft 365 kts 126°
2026-05-05 21:08 40.27126 -73.13173 19295 ft 374 kts 126°
2026-05-05 21:08 40.25681 -73.10304 19679 ft 383 kts 126°
2026-05-05 21:08 40.24200 -73.07360 20081 ft 393 kts 126°
2026-05-05 21:09 40.22688 -73.04336 20459 ft 403 kts 125°
2026-05-05 21:09 40.21142 -73.01240 20809 ft 412 kts 125°
2026-05-05 21:09 40.19568 -72.98088 21198 ft 419 kts 125°
2026-05-05 21:09 40.17971 -72.94898 21577 ft 420 kts 125°
2026-05-05 21:10 40.16376 -72.91712 21946 ft 421 kts 125°
2026-05-05 21:10 40.14776 -72.88519 22317 ft 422 kts 125°
2026-05-05 21:10 40.13158 -72.85296 22692 ft 425 kts 125°
2026-05-05 21:10 40.11536 -72.82071 23060 ft 427 kts 125°
2026-05-05 21:11 40.09941 -72.78798 23440 ft 431 kts 123°
2026-05-05 21:11 40.08410 -72.75426 23830 ft 433 kts 122°
2026-05-05 21:11 40.06903 -72.72019 24209 ft 436 kts 121°
2026-05-05 21:11 40.05388 -72.68586 24593 ft 439 kts 121°
2026-05-05 21:12 40.03856 -72.65132 24984 ft 442 kts 121°
2026-05-05 21:12 40.02307 -72.61657 25375 ft 446 kts 121°
2026-05-05 21:12 40.00743 -72.58164 25768 ft 449 kts 121°
2026-05-05 21:12 39.99163 -72.54646 26153 ft 451 kts 121°
2026-05-05 21:13 39.97577 -72.51117 26547 ft 453 kts 121°
2026-05-05 21:13 39.95996 -72.47550 26936 ft 456 kts 120°
2026-05-05 21:13 39.94419 -72.43953 27329 ft 458 kts 120°
2026-05-05 21:13 39.92836 -72.40330 27718 ft 460 kts 120°
2026-05-05 21:14 39.91242 -72.36688 28120 ft 461 kts 120°
2026-05-05 21:14 39.89643 -72.33041 28516 ft 462 kts 120°
2026-05-05 21:14 39.88044 -72.29403 28911 ft 462 kts 120°
2026-05-05 21:14 39.86447 -72.25773 29304 ft 462 kts 120°
2026-05-05 21:15 39.84851 -72.22153 29703 ft 461 kts 119°
2026-05-05 21:15 39.83259 -72.18546 30095 ft 460 kts 119°
2026-05-05 21:15 39.81666 -72.14943 30498 ft 458 kts 119°
2026-05-05 21:15 39.80086 -72.11366 30902 ft 455 kts 119°
2026-05-05 21:16 39.78513 -72.07812 31304 ft 452 kts 119°
2026-05-05 21:16 39.76946 -72.04274 31704 ft 449 kts 119°
2026-05-05 21:16 39.75386 -72.00754 32109 ft 445 kts 119°
2026-05-05 21:16 39.73821 -71.97295 32515 ft 441 kts 120°
2026-05-05 21:17 39.72247 -71.93884 32870 ft 438 kts 121°
2026-05-05 21:17 39.70668 -71.90487 32995 ft 441 kts 121°
2026-05-05 21:17 39.67457 -71.83593 33022 ft 451 kts 121°
2026-05-05 21:18 39.64168 -71.76533 33028 ft 462 kts 121°
2026-05-05 21:18 39.60797 -71.69308 33035 ft 473 kts 121°
2026-05-05 21:19 39.57343 -71.61922 33037 ft 485 kts 121°
2026-05-05 21:19 39.53793 -71.54352 33045 ft 497 kts 121°
2026-05-05 21:20 39.50187 -71.46678 33046 ft 501 kts 121°
2026-05-05 21:20 39.46576 -71.39010 33059 ft 496 kts 121°
2026-05-05 21:21 39.42201 -71.32184 33056 ft 494 kts 143°
2026-05-05 21:21 39.39338 -71.29762 33064 ft 494 kts 154°
2026-05-05 21:21 39.36229 -71.27884 33069 ft 493 kts 159°
2026-05-05 21:22 39.29847 -71.24692 33074 ft 490 kts 161°
2026-05-05 21:22 39.23495 -71.21552 33076 ft 489 kts 161°
2026-05-05 21:23 39.17154 -71.18314 33077 ft 490 kts 160°
2026-05-05 21:23 39.10823 -71.15039 33080 ft 490 kts 160°
2026-05-05 21:24 39.04497 -71.11763 33091 ft 491 kts 160°
2026-05-05 21:24 38.98161 -71.08490 33090 ft 491 kts 160°
2026-05-05 21:25 38.91848 -71.05237 33092 ft 488 kts 160°
2026-05-05 21:25 38.85544 -71.01994 33093 ft 487 kts 160°
2026-05-05 21:26 38.79236 -70.98756 33101 ft 486 kts 160°
2026-05-05 21:26 38.72953 -70.95536 33103 ft 487 kts 160°
2026-05-05 21:27 38.66644 -70.92311 33099 ft 488 kts 160°
2026-05-05 21:27 38.60330 -70.89087 33105 ft 487 kts 160°
2026-05-05 21:28 38.54045 -70.85884 33109 ft 485 kts 160°
2026-05-05 21:28 38.47765 -70.82692 33111 ft 485 kts 160°
2026-05-05 21:29 38.41491 -70.79507 33117 ft 484 kts 161°
2026-05-05 21:29 38.35202 -70.76321 33121 ft 485 kts 161°
2026-05-05 21:30 38.28936 -70.73152 33124 ft 482 kts 161°
2026-05-05 21:30 38.22700 -70.70004 33131 ft 482 kts 161°
2026-05-05 21:31 38.16449 -70.66856 33133 ft 483 kts 161°
2026-05-05 21:31 38.10208 -70.63718 33134 ft 482 kts 161°
2026-05-05 21:32 38.03959 -70.60581 33143 ft 482 kts 161°
2026-05-05 21:32 37.97789 -70.57220 33138 ft 483 kts 156°
2026-05-05 21:33 37.91774 -70.53407 33145 ft 483 kts 155°
2026-05-05 21:33 37.85774 -70.49566 33140 ft 482 kts 155°
2026-05-05 21:34 37.79767 -70.45766 33148 ft 481 kts 156°
2026-05-05 21:34 37.73766 -70.41997 33151 ft 481 kts 156°
2026-05-05 21:35 37.67753 -70.38233 33151 ft 481 kts 156°
2026-05-05 21:35 37.61743 -70.34477 33155 ft 481 kts 156°
2026-05-05 21:36 37.55742 -70.30733 33159 ft 481 kts 157°
2026-05-05 21:36 37.49753 -70.27003 33166 ft 480 kts 157°
2026-05-05 21:37 37.43760 -70.23277 33163 ft 480 kts 157°
2026-05-05 21:37 37.37784 -70.19569 33167 ft 479 kts 157°
2026-05-05 21:38 37.31810 -70.15868 33169 ft 478 kts 157°
2026-05-05 21:38 37.25828 -70.12169 33175 ft 477 kts 157°
2026-05-05 21:39 37.19865 -70.08489 33180 ft 477 kts 157°
2026-05-05 21:39 37.13905 -70.04817 33178 ft 477 kts 157°
2026-05-05 21:40 37.07927 -70.01139 33182 ft 477 kts 157°
2026-05-05 21:40 37.01961 -69.97476 33186 ft 477 kts 157°
2026-05-05 21:41 36.96013 -69.93830 33194 ft 476 kts 157°
2026-05-05 21:41 36.90071 -69.90195 33199 ft 475 kts 157°
2026-05-05 21:42 36.84151 -69.86579 33198 ft 474 kts 157°
2026-05-05 21:42 36.78221 -69.82964 33198 ft 475 kts 157°
2026-05-05 21:43 36.72262 -69.79337 33200 ft 475 kts 157°
2026-05-05 21:43 36.66316 -69.75724 33203 ft 475 kts 157°
2026-05-05 21:44 36.60397 -69.72134 33203 ft 475 kts 157°
2026-05-05 21:44 36.54439 -69.68526 33204 ft 474 kts 157°
2026-05-05 21:45 36.48501 -69.64936 33207 ft 473 kts 157°
2026-05-05 21:45 36.42563 -69.61353 33207 ft 473 kts 157°
2026-05-05 21:46 36.36608 -69.57766 33207 ft 473 kts 157°
2026-05-05 21:46 36.30678 -69.54200 33208 ft 473 kts 157°
2026-05-05 21:47 36.24725 -69.50625 33210 ft 473 kts 157°
2026-05-05 21:47 36.18804 -69.47087 33208 ft 472 kts 158°
2026-05-05 21:48 36.12577 -69.44653 33211 ft 467 kts 170°
2026-05-05 21:48 36.06195 -69.43021 33213 ft 466 kts 171°
2026-05-05 21:49 35.99844 -69.41407 33211 ft 465 kts 171°
2026-05-05 21:49 35.93482 -69.39729 33208 ft 466 kts 170°
2026-05-05 21:50 35.87129 -69.38028 33208 ft 466 kts 170°
2026-05-05 21:50 35.80788 -69.36326 33208 ft 466 kts 170°
2026-05-05 21:51 35.74427 -69.34622 33205 ft 467 kts 171°
2026-05-05 21:51 35.68086 -69.32925 33207 ft 466 kts 171°
2026-05-05 21:52 35.58564 -69.30384 33209 ft 466 kts 171°
2026-05-05 21:53 35.52213 -69.28693 33208 ft 467 kts 171°
2026-05-05 21:53 35.45845 -69.27000 33211 ft 466 kts 171°
2026-05-05 21:54 35.39503 -69.25316 33219 ft 466 kts 171°
2026-05-05 21:54 35.33153 -69.23633 33226 ft 465 kts 171°
2026-05-05 21:55 35.26819 -69.21957 33226 ft 465 kts 171°
2026-05-05 21:55 35.20482 -69.20282 33222 ft 465 kts 171°
2026-05-05 21:56 35.14124 -69.18606 33216 ft 465 kts 171°
2026-05-05 21:56 35.07789 -69.16937 33583 ft 461 kts 171°
2026-05-05 21:56 35.04649 -69.16110 33883 ft 460 kts 171°
2026-05-05 21:57 35.01518 -69.15286 34180 ft 459 kts 171°
2026-05-05 21:57 34.98392 -69.14465 34481 ft 458 kts 171°
2026-05-05 21:57 34.95278 -69.13648 34726 ft 456 kts 171°
2026-05-05 21:57 34.92176 -69.12833 34961 ft 454 kts 171°
2026-05-05 21:58 34.89080 -69.12022 35189 ft 452 kts 171°
2026-05-05 21:58 34.86010 -69.11217 35428 ft 450 kts 171°
2026-05-05 21:58 34.82965 -69.10420 35659 ft 447 kts 171°
2026-05-05 21:58 34.79932 -69.09627 35885 ft 444 kts 171°
2026-05-05 21:59 34.76920 -69.08839 36117 ft 441 kts 171°
2026-05-05 21:59 34.73935 -69.08058 36350 ft 437 kts 171°
2026-05-05 21:59 34.70969 -69.07283 36607 ft 433 kts 171°
2026-05-05 21:59 34.68021 -69.06514 36881 ft 429 kts 172°
2026-05-05 22:00 34.65119 -69.05757 37100 ft 425 kts 172°
2026-05-05 22:00 34.59313 -69.04247 37204 ft 427 kts 172°
2026-05-05 22:01 34.53454 -69.02727 37207 ft 430 kts 172°
2026-05-05 22:01 34.47552 -69.01197 37216 ft 434 kts 172°
2026-05-05 22:02 34.41606 -68.99658 37206 ft 438 kts 172°
2026-05-05 22:02 34.35599 -68.98105 37200 ft 443 kts 172°
2026-05-05 22:03 34.29542 -68.96541 37208 ft 447 kts 172°
2026-05-05 22:03 34.23424 -68.94963 37202 ft 451 kts 172°
2026-05-05 22:04 34.17253 -68.93375 37209 ft 455 kts 172°
2026-05-05 22:04 34.11026 -68.91774 37214 ft 460 kts 172°
2026-05-05 22:05 34.04734 -68.90155 37206 ft 464 kts 172°
2026-05-05 22:05 33.98382 -68.88524 37205 ft 469 kts 172°
2026-05-05 22:06 33.91944 -68.86871 37221 ft 474 kts 172°
2026-05-05 22:06 33.85446 -68.85207 37222 ft 479 kts 172°
2026-05-05 22:07 33.78898 -68.83534 37212 ft 482 kts 172°
2026-05-05 22:07 33.72307 -68.81851 37207 ft 485 kts 172°
2026-05-05 22:08 33.65694 -68.80165 37203 ft 485 kts 172°
2026-05-05 22:08 33.59076 -68.78479 37195 ft 485 kts 172°
2026-05-05 22:09 33.52466 -68.76799 37202 ft 485 kts 172°
2026-05-05 22:09 33.45849 -68.75119 37182 ft 485 kts 172°
2026-05-05 22:10 33.39238 -68.73445 37186 ft 484 kts 172°
2026-05-05 22:10 33.32609 -68.71767 37193 ft 483 kts 172°
2026-05-05 22:11 33.26013 -68.70102 37189 ft 482 kts 172°
2026-05-05 22:11 33.19435 -68.68442 37196 ft 482 kts 173°
2026-05-05 22:12 33.12859 -68.66787 37188 ft 481 kts 173°
2026-05-05 22:12 33.06296 -68.65137 37195 ft 481 kts 173°
2026-05-05 22:13 32.99727 -68.63488 37183 ft 480 kts 173°
2026-05-05 22:13 32.93171 -68.61845 37189 ft 480 kts 173°
2026-05-05 22:14 32.86617 -68.60205 37177 ft 480 kts 173°
2026-05-05 22:14 32.80073 -68.58569 37180 ft 480 kts 173°
2026-05-05 22:15 32.73534 -68.56939 37183 ft 480 kts 173°
2026-05-05 22:15 32.66965 -68.55302 37177 ft 480 kts 173°
2026-05-05 22:16 32.60422 -68.53674 37173 ft 480 kts 173°
2026-05-05 22:16 32.53866 -68.52045 37165 ft 480 kts 173°
2026-05-05 22:17 32.47322 -68.50422 37173 ft 480 kts 173°
2026-05-05 22:17 32.40772 -68.48800 37175 ft 480 kts 173°
2026-05-05 22:18 32.34213 -68.47178 37167 ft 480 kts 173°
2026-05-05 22:18 32.27662 -68.45560 37170 ft 479 kts 173°
2026-05-05 22:19 32.21106 -68.43944 37164 ft 479 kts 173°
2026-05-05 22:19 32.14571 -68.42335 37163 ft 479 kts 173°
2026-05-05 22:20 32.08021 -68.40725 37168 ft 479 kts 173°
2026-05-05 22:20 32.01451 -68.39113 37176 ft 481 kts 173°
2026-05-05 22:21 31.94902 -68.37506 37159 ft 480 kts 173°
2026-05-05 22:21 31.88360 -68.35905 37165 ft 479 kts 173°
2026-05-05 22:22 31.81818 -68.34305 37163 ft 479 kts 174°
2026-05-05 22:22 31.75306 -68.32716 37163 ft 478 kts 174°
2026-05-05 22:23 31.68774 -68.31125 37162 ft 478 kts 174°
2026-05-05 22:23 31.62255 -68.29538 37161 ft 478 kts 174°
2026-05-05 22:24 31.55744 -68.27956 37161 ft 478 kts 174°
2026-05-05 22:24 31.49229 -68.26376 37161 ft 477 kts 174°
2026-05-05 22:25 31.42731 -68.24800 37159 ft 477 kts 174°
2026-05-05 22:25 31.36228 -68.23229 37160 ft 476 kts 174°
2026-05-05 22:26 31.29714 -68.21658 37157 ft 477 kts 174°
2026-05-05 22:26 31.23193 -68.20087 37154 ft 477 kts 174°
2026-05-05 22:27 31.16684 -68.18521 37153 ft 477 kts 174°
2026-05-05 22:27 31.10154 -68.16953 37156 ft 478 kts 174°
2026-05-05 22:28 31.03645 -68.15391 37154 ft 477 kts 174°
2026-05-05 22:28 30.97118 -68.13828 37153 ft 477 kts 174°
2026-05-05 22:29 30.90597 -68.12269 37146 ft 477 kts 174°
2026-05-05 22:29 30.84075 -68.10710 37151 ft 478 kts 174°
2026-05-05 22:30 30.77555 -68.09155 37148 ft 477 kts 174°
2026-05-05 22:30 30.71050 -68.07605 37146 ft 477 kts 174°
2026-05-05 22:31 30.64530 -68.06054 37133 ft 477 kts 174°
2026-05-05 22:31 30.57995 -68.04502 37133 ft 477 kts 174°
2026-05-05 22:32 30.51473 -68.02954 37129 ft 477 kts 174°
2026-05-05 22:32 30.44957 -68.01410 37128 ft 478 kts 174°
2026-05-05 22:33 30.38417 -67.99863 37129 ft 478 kts 175°
2026-05-05 22:33 30.31888 -67.98321 37126 ft 478 kts 175°
2026-05-05 22:34 30.25338 -67.96775 37130 ft 479 kts 175°
2026-05-05 22:34 30.18783 -67.95231 37129 ft 479 kts 175°
2026-05-05 22:35 30.12249 -67.93693 37125 ft 478 kts 174°
2026-05-05 22:35 30.05715 -67.92157 37132 ft 478 kts 175°
2026-05-05 22:36 29.99171 -67.90622 37131 ft 478 kts 175°
2026-05-05 22:36 29.92642 -67.89093 37131 ft 478 kts 174°
2026-05-05 22:37 29.86102 -67.87562 37128 ft 478 kts 174°
2026-05-05 22:37 29.79559 -67.86033 37132 ft 478 kts 175°
2026-05-05 22:38 29.73024 -67.84507 37132 ft 479 kts 175°
2026-05-05 22:38 29.66475 -67.82980 37132 ft 478 kts 175°
2026-05-05 22:39 29.59946 -67.81460 37126 ft 479 kts 175°
2026-05-05 22:39 29.53400 -67.79939 37133 ft 480 kts 175°
2026-05-05 22:40 29.46832 -67.78414 37130 ft 479 kts 175°
2026-05-05 22:40 29.40274 -67.76892 37131 ft 479 kts 175°
2026-05-05 22:41 29.33735 -67.75377 37127 ft 478 kts 175°
2026-05-05 22:41 29.27206 -67.73868 37128 ft 477 kts 175°
2026-05-05 22:42 29.20680 -67.72361 37126 ft 477 kts 175°
2026-05-05 22:42 29.14154 -67.70855 37127 ft 477 kts 175°
2026-05-05 22:43 29.07636 -67.69354 37128 ft 476 kts 175°
2026-05-05 22:43 29.01129 -67.67857 37127 ft 476 kts 175°
2026-05-05 22:44 28.94618 -67.66360 37121 ft 476 kts 175°
2026-05-05 22:44 28.88121 -67.64869 37124 ft 476 kts 175°
2026-05-05 22:45 28.81635 -67.63383 37121 ft 475 kts 175°
2026-05-05 22:45 28.75128 -67.61894 37120 ft 475 kts 175°
2026-05-05 22:46 28.68630 -67.60408 37116 ft 475 kts 175°
2026-05-05 22:46 28.62134 -67.58925 37113 ft 474 kts 175°
2026-05-05 22:47 28.55627 -67.57442 37116 ft 475 kts 175°
2026-05-05 22:47 28.49138 -67.55964 37108 ft 474 kts 175°
2026-05-05 22:48 28.42653 -67.54488 37102 ft 474 kts 175°
2026-05-05 22:48 28.36165 -67.53015 37107 ft 474 kts 175°
2026-05-05 22:49 28.29685 -67.51544 37101 ft 474 kts 175°
2026-05-05 22:49 28.23205 -67.50074 37099 ft 474 kts 175°
2026-05-05 22:50 28.16740 -67.48612 37094 ft 474 kts 175°
2026-05-05 22:50 28.10273 -67.47148 37097 ft 472 kts 175°
2026-05-05 22:51 28.03800 -67.45686 37096 ft 473 kts 175°
2026-05-05 22:51 27.97339 -67.44229 37090 ft 472 kts 175°
2026-05-05 22:52 27.90877 -67.42773 37089 ft 472 kts 175°
2026-05-05 22:52 27.84403 -67.41316 37089 ft 472 kts 175°
2026-05-05 22:53 27.77942 -67.39865 37088 ft 473 kts 175°
2026-05-05 22:53 27.71468 -67.38411 37084 ft 472 kts 175°
2026-05-05 22:54 27.65013 -67.36965 37085 ft 472 kts 174°
2026-05-05 22:54 27.58546 -67.35516 37084 ft 472 kts 175°
2026-05-05 22:55 27.52085 -67.34070 37082 ft 472 kts 175°
2026-05-05 22:55 27.45639 -67.32630 37082 ft 471 kts 175°
2026-05-05 22:56 27.39188 -67.31191 37082 ft 471 kts 175°
2026-05-05 22:56 27.32742 -67.29754 37079 ft 471 kts 175°
2026-05-05 22:57 27.26293 -67.28319 37080 ft 471 kts 175°
2026-05-05 22:57 27.19843 -67.26885 37078 ft 471 kts 175°
2026-05-05 22:58 27.13384 -67.25450 37077 ft 472 kts 174°
2026-05-05 22:58 27.06937 -67.24021 37075 ft 471 kts 174°
2026-05-05 22:59 27.00495 -67.22595 37075 ft 471 kts 174°
2026-05-05 22:59 26.94042 -67.21169 37073 ft 471 kts 174°
2026-05-05 23:00 26.84374 -67.19036 37073 ft 472 kts 174°
2026-05-05 23:00 26.77907 -67.17611 37072 ft 474 kts 174°
2026-05-05 23:01 26.71409 -67.16181 37073 ft 474 kts 174°
2026-05-05 23:01 26.64915 -67.14753 37072 ft 476 kts 174°
2026-05-05 23:02 26.58406 -67.13324 37073 ft 476 kts 174°
2026-05-05 23:02 26.51866 -67.11889 37071 ft 478 kts 174°
2026-05-05 23:03 26.45315 -67.10453 37072 ft 478 kts 174°
2026-05-05 23:03 26.38764 -67.09019 37071 ft 479 kts 174°
2026-05-05 23:04 26.32191 -67.07583 37069 ft 480 kts 174°
2026-05-05 23:04 26.25610 -67.06146 37070 ft 481 kts 174°
2026-05-05 23:05 26.19019 -67.04708 37071 ft 481 kts 173°
2026-05-05 23:05 26.12425 -67.03271 37068 ft 482 kts 173°
2026-05-05 23:06 26.05807 -67.01832 37068 ft 483 kts 174°
2026-05-05 23:06 25.99198 -67.00396 37070 ft 484 kts 173°
2026-05-05 23:07 25.92544 -66.98951 37073 ft 485 kts 174°
2026-05-05 23:07 25.85916 -66.97513 37068 ft 485 kts 173°
2026-05-05 23:08 25.79279 -66.96075 37071 ft 486 kts 174°
2026-05-05 23:08 25.72619 -66.94635 37076 ft 487 kts 174°
2026-05-05 23:09 25.65955 -66.93194 37078 ft 487 kts 173°
2026-05-05 23:09 25.59283 -66.91755 37078 ft 488 kts 173°
2026-05-05 23:10 25.52579 -66.90309 37075 ft 488 kts 173°
2026-05-05 23:10 25.45894 -66.88869 37074 ft 488 kts 173°
2026-05-05 23:11 25.39192 -66.87427 37074 ft 489 kts 173°
2026-05-05 23:11 25.32496 -66.85989 37070 ft 489 kts 173°
2026-05-05 23:12 25.25800 -66.84551 37070 ft 489 kts 173°
2026-05-05 23:12 25.19081 -66.83111 37069 ft 490 kts 173°
2026-05-05 23:13 25.12352 -66.81671 37072 ft 491 kts 173°
2026-05-05 23:13 25.05614 -66.80229 37070 ft 492 kts 173°
2026-05-05 23:14 24.98853 -66.78784 37074 ft 493 kts 173°
2026-05-05 23:14 24.92109 -66.77344 37072 ft 493 kts 173°
2026-05-05 23:15 24.85366 -66.75907 37069 ft 493 kts 173°
2026-05-05 23:15 24.78577 -66.74462 37070 ft 493 kts 173°
2026-05-05 23:16 24.71815 -66.73023 37075 ft 494 kts 173°
2026-05-05 23:16 24.65048 -66.71584 37071 ft 494 kts 173°
2026-05-05 23:17 24.58270 -66.70146 37069 ft 495 kts 173°
2026-05-05 23:17 24.51472 -66.68705 37073 ft 495 kts 173°
2026-05-05 23:18 24.44678 -66.67266 37068 ft 495 kts 173°
2026-05-05 23:18 24.37896 -66.65831 37070 ft 495 kts 173°
2026-05-05 23:19 24.31122 -66.64399 37072 ft 495 kts 173°
2026-05-05 23:19 24.24327 -66.62965 37072 ft 496 kts 173°
2026-05-05 23:20 24.17523 -66.61531 37070 ft 495 kts 173°
2026-05-05 23:20 24.10733 -66.60100 37068 ft 496 kts 173°
2026-05-05 23:21 24.03926 -66.58668 37070 ft 496 kts 173°
2026-05-05 23:21 23.97127 -66.57239 37069 ft 496 kts 173°
2026-05-05 23:22 23.90332 -66.55812 37069 ft 496 kts 173°
2026-05-05 23:22 23.83543 -66.54388 37069 ft 496 kts 173°
2026-05-05 23:23 23.76738 -66.52963 37071 ft 497 kts 173°
2026-05-05 23:23 23.69940 -66.51540 37067 ft 497 kts 173°
2026-05-05 23:24 23.63145 -66.50120 37071 ft 497 kts 173°
2026-05-05 23:24 23.56339 -66.48698 37078 ft 497 kts 173°
2026-05-05 23:25 23.49524 -66.47277 37077 ft 497 kts 173°
2026-05-05 23:25 23.42703 -66.45855 37082 ft 497 kts 173°
2026-05-05 23:26 23.35902 -66.44439 37076 ft 497 kts 173°
2026-05-05 23:26 23.29095 -66.43023 37080 ft 497 kts 173°
2026-05-05 23:27 23.22278 -66.41607 37078 ft 497 kts 173°
2026-05-05 23:27 23.15456 -66.40192 37082 ft 498 kts 173°
2026-05-05 23:28 23.08642 -66.38779 37080 ft 498 kts 173°
2026-05-05 23:28 23.01811 -66.37364 37081 ft 497 kts 173°
2026-05-05 23:29 22.94990 -66.35952 37082 ft 497 kts 173°
2026-05-05 23:29 22.88184 -66.34540 37095 ft 497 kts 173°
2026-05-05 23:30 22.81383 -66.33126 37089 ft 496 kts 173°
2026-05-05 23:30 22.74579 -66.31713 37089 ft 496 kts 173°
2026-05-05 23:31 22.67791 -66.30307 37084 ft 496 kts 173°
2026-05-05 23:31 22.60976 -66.28897 37083 ft 496 kts 173°
2026-05-05 23:32 22.54172 -66.27490 37091 ft 496 kts 173°
2026-05-05 23:32 22.47380 -66.26086 37086 ft 496 kts 173°
2026-05-05 23:33 22.40581 -66.24683 37086 ft 495 kts 173°
2026-05-05 23:33 22.33785 -66.23282 37086 ft 495 kts 173°
2026-05-05 23:34 22.26999 -66.21884 37079 ft 494 kts 173°
2026-05-05 23:34 22.20217 -66.20488 37072 ft 494 kts 173°
2026-05-05 23:35 22.13445 -66.19096 37071 ft 494 kts 173°
2026-05-05 23:35 22.06668 -66.17705 37073 ft 494 kts 173°
2026-05-05 23:36 21.99879 -66.16322 37070 ft 494 kts 173°
2026-05-05 23:36 21.93108 -66.14949 37065 ft 494 kts 173°
2026-05-05 23:37 21.86335 -66.13576 37068 ft 494 kts 173°
2026-05-05 23:37 21.79563 -66.12203 37068 ft 494 kts 173°
2026-05-05 23:38 21.72795 -66.10833 37069 ft 494 kts 173°
2026-05-05 23:38 21.66015 -66.09461 37068 ft 494 kts 173°
2026-05-05 23:39 21.59240 -66.08092 37068 ft 494 kts 173°
2026-05-05 23:39 21.52470 -66.06712 37066 ft 495 kts 172°
2026-05-05 23:40 21.49142 -66.05635 36947 ft 503 kts 161°
2026-05-05 23:40 21.46010 -66.03885 36524 ft 513 kts 152°
2026-05-05 23:40 21.43057 -66.01704 36068 ft 515 kts 147°
2026-05-05 23:40 21.40224 -65.99379 35620 ft 510 kts 146°
2026-05-05 23:41 21.37458 -65.97051 35168 ft 502 kts 146°
2026-05-05 23:41 21.34722 -65.94766 34723 ft 495 kts 146°
2026-05-05 23:41 21.31985 -65.92521 34274 ft 491 kts 147°
2026-05-05 23:41 21.29261 -65.90320 33832 ft 490 kts 147°
2026-05-05 23:42 21.26529 -65.88133 33386 ft 488 kts 147°
2026-05-05 23:42 21.23806 -65.85965 32946 ft 485 kts 147°
2026-05-05 23:42 21.21105 -65.83818 32558 ft 482 kts 147°
2026-05-05 23:42 21.18417 -65.81684 32167 ft 479 kts 147°
2026-05-05 23:43 21.15733 -65.79555 31777 ft 478 kts 147°
2026-05-05 23:43 21.13066 -65.77439 31384 ft 477 kts 147°
2026-05-05 23:43 21.10414 -65.75335 30995 ft 474 kts 147°
2026-05-05 23:43 21.07769 -65.73237 30624 ft 471 kts 147°
2026-05-05 23:44 21.05145 -65.71156 30373 ft 467 kts 147°
2026-05-05 23:44 21.02536 -65.69089 30122 ft 467 kts 146°
2026-05-05 23:44 20.99925 -65.67021 29873 ft 468 kts 146°
2026-05-05 23:44 20.97312 -65.64954 29616 ft 466 kts 146°
2026-05-05 23:45 20.94713 -65.62896 29364 ft 463 kts 146°